| time (UTC) | temp F | wind direction | speed MPH | gust MPH | rain 1hr in | rain 24hr in | rain mn in | humidity % | barometer mb |
| 20260903234523 | 61 | 263 | 3.0 | 9.0 | 0.00 | 0.13 | 0.00 | 83 | 1007.3 |
| 20260903233022 | 61 | 229 | 4.0 | 8.0 | 0.00 | 0.13 | 0.00 | 84 | 1007.2 |
| 20260903231530 | 61 | 240 | 4.0 | 9.0 | 0.00 | 0.13 | 0.00 | 85 | 1007.2 |
| 20260903230025 | 61 | 236 | 4.0 | 9.0 | 0.00 | 0.13 | 0.00 | 85 | 1007.4 |
| 20260903224531 | 61 | 237 | 2.0 | 12.0 | 0.00 | 0.13 | 0.00 | 86 | 1007.4 |
| 20260903223015 | 62 | 229 | 4.0 | 12.0 | 0.00 | 0.13 | 0.00 | 86 | 1007.5 |
| 20260903221512 | 62 | 223 | 3.0 | 12.0 | 0.00 | 0.13 | 0.00 | 87 | 1007.7 |
| 20260903220010 | 61 | 257 | 2.0 | 7.0 | 0.00 | 0.13 | 0.00 | 87 | 1007.7 |
| 20260903214524 | 61 | 219 | 3.0 | 8.0 | 0.00 | 0.13 | 0.13 | 87 | 1007.4 |
| 20260903213006 | 61 | 225 | 4.0 | 11.0 | 0.00 | 0.13 | 0.13 | 87 | 1007.4 |
| 20260903211528 | 62 | 288 | 2.0 | 9.0 | 0.00 | 0.13 | 0.13 | 87 | 1007.5 |
| 20260903210007 | 62 | 206 | 3.0 | 9.0 | 0.00 | 0.13 | 0.13 | 87 | 1007.5 |
| 20260903204526 | 62 | 240 | 3.0 | 7.0 | 0.00 | 0.13 | 0.13 | 86 | 1007.6 |
| 20260903203006 | 62 | 313 | 1.0 | 7.0 | 0.00 | 0.13 | 0.13 | 84 | 1007.6 |
| 20260903201505 | 63 | 234 | 3.0 | 11.0 | 0.00 | 0.13 | 0.13 | 84 | 1007.6 |
| 20260903200005 | 63 | 300 | 3.0 | 11.0 | 0.00 | 0.13 | 0.13 | 84 | 1007.3 |
| 20260903194543 | 64 | 235 | 4.0 | 14.0 | 0.00 | 0.13 | 0.13 | 83 | 1007.4 |
| 20260903193148 | 64 | 162 | 4.0 | 10.0 | 0.00 | 0.13 | 0.13 | 85 | 1007.4 |
| 20260903191554 | 64 | 194 | 2.0 | 13.0 | 0.00 | 0.13 | 0.13 | 85 | 1007.3 |
| 20260903190044 | 64 | 221 | 3.0 | 13.0 | 0.00 | 0.13 | 0.13 | 85 | 1007.2 |
| 20260903184542 | 64 | 240 | 4.0 | 12.0 | 0.00 | 0.13 | 0.13 | 85 | 1007.2 |
| 20260903183145 | 65 | 244 | 7.0 | 14.0 | 0.00 | 0.13 | 0.13 | 86 | 1007.2 |
| 20260903181541 | 65 | 244 | 2.0 | 11.0 | 0.00 | 0.13 | 0.13 | 86 | 1006.9 |
| 20260903180044 | 65 | 240 | 3.0 | 8.0 | 0.00 | 0.13 | 0.13 | 86 | 1006.8 |
| 20260903174645 | 65 | 219 | 5.0 | 9.0 | 0.00 | 0.16 | 0.13 | 86 | 1006.6 |
| 20260903173050 | 66 | 253 | 4.0 | 9.0 | 0.00 | 0.16 | 0.13 | 86 | 1006.6 |
| 20260903171641 | 66 | 238 | 7.0 | 12.0 | 0.00 | 0.16 | 0.13 | 85 | 1006.5 |
| 20260903170059 | 67 | 207 | 4.0 | 10.0 | 0.00 | 0.16 | 0.13 | 86 | 1006.5 |
| 20260903164546 | 67 | 221 | 6.0 | 11.0 | 0.00 | 0.17 | 0.13 | 86 | 1006.4 |
| 20260903163143 | 67 | 238 | 4.0 | 15.0 | 0.00 | 0.17 | 0.13 | 85 | 1006.4 |
| 20260903161559 | 67 | 258 | 7.0 | 15.0 | 0.00 | 0.17 | 0.13 | 86 | 1006.4 |
| 20260903160128 | 67 | 200 | 4.0 | 12.0 | 0.00 | 0.17 | 0.13 | 87 | 1006.4 |
| 20260903154605 | 67 | 240 | 3.0 | 10.0 | 0.00 | 0.21 | 0.13 | 88 | 1006.5 |
| 20260903153148 | 66 | 227 | 3.0 | 10.0 | 0.00 | 0.21 | 0.13 | 89 | 1006.5 |
| 20260903151541 | 66 | 221 | 4.0 | 12.0 | 0.00 | 0.21 | 0.13 | 90 | 1006.5 |
| 20260903150147 | 66 | 205 | 4.0 | 9.0 | 0.00 | 0.21 | 0.13 | 90 | 1006.5 |
| 20260903144602 | 66 | 213 | 5.0 | 10.0 | 0.00 | 0.28 | 0.13 | 91 | 1006.7 |
| 20260903143153 | 66 | 233 | 3.0 | 10.0 | 0.00 | 0.28 | 0.13 | 92 | 1006.7 |
| 20260903141550 | 64 | 215 | 4.0 | 11.0 | 0.00 | 0.28 | 0.13 | 91 | 1006.9 |
| 20260903140049 | 65 | 219 | 3.0 | 10.0 | 0.01 | 0.28 | 0.13 | 91 | 1006.9 |
| 20260903134641 | 65 | 223 | 5.0 | 10.0 | 0.02 | 0.28 | 0.13 | 91 | 1006.9 |
| 20260903133046 | 64 | 212 | 6.0 | 13.0 | 0.02 | 0.28 | 0.13 | 92 | 1006.9 |
| 20260903131544 | 64 | 217 | 6.0 | 11.0 | 0.02 | 0.28 | 0.13 | 92 | 1007.0 |
| 20260903130001 | 64 | 215 | 5.0 | 9.0 | 0.01 | 0.28 | 0.11 | 92 | 1007.1 |
| 20260903124553 | 63 | 200 | 4.0 | 9.0 | 0.00 | 0.27 | 0.10 | 92 | 1007.2 |
| 20260903123005 | 63 | 218 | 4.0 | 10.0 | 0.01 | 0.27 | 0.10 | 92 | 1007.3 |
| 20260903121608 | 62 | 191 | 4.0 | 12.0 | 0.02 | 0.27 | 0.10 | 92 | 1007.4 |
| 20260903120044 | 62 | 209 | 5.0 | 10.0 | 0.03 | 0.27 | 0.10 | 92 | 1007.4 |
| 20260903114545 | 62 | 213 | 6.0 | 13.0 | 0.04 | 0.27 | 0.10 | 92 | 1007.7 |
| 20260903113002 | 62 | 185 | 5.0 | 12.0 | 0.03 | 0.26 | 0.09 | 92 | 1007.9 |
| 20260903111603 | 62 | 226 | 6.0 | 10.0 | 0.02 | 0.25 | 0.09 | 92 | 1008.1 |
| 20260903110047 | 62 | 192 | 5.0 | 15.0 | 0.01 | 0.24 | 0.07 | 92 | 1008.3 |
| 20260903104515 | 62 | 214 | 5.0 | 11.0 | 0.00 | 0.23 | 0.06 | 92 | 1008.5 |
| 20260903103102 | 61 | 190 | 3.0 | 11.0 | 0.01 | 0.23 | 0.06 | 93 | 1008.6 |
| 20260903101519 | 61 | 212 | 4.0 | 10.0 | 0.01 | 0.23 | 0.06 | 92 | 1008.6 |
| 20260903100109 | 61 | 207 | 6.0 | 11.0 | 0.02 | 0.23 | 0.06 | 92 | 1009.0 |
| 20260903094541 | 61 | 211 | 4.0 | 12.0 | 0.02 | 0.23 | 0.06 | 92 | 1009.3 |
| 20260903093138 | 61 | 198 | 4.0 | 8.0 | 0.01 | 0.22 | 0.06 | 92 | 1009.5 |
| 20260903091606 | 61 | 188 | 5.0 | 9.0 | 0.02 | 0.22 | 0.06 | 92 | 1009.7 |
| 20260903090037 | 61 | 203 | 4.0 | 7.0 | 0.01 | 0.21 | 0.05 | 92 | 1010.0 |
| 20260903084533 | 61 | 198 | 2.0 | 7.0 | 0.01 | 0.21 | 0.05 | 92 | 1010.1 |
| 20260903083025 | 60 | 206 | 4.0 | 10.0 | 0.01 | 0.21 | 0.05 | 91 | 1010.3 |
| 20260903081527 | 60 | 192 | 4.0 | 10.0 | 0.00 | 0.20 | 0.04 | 91 | 1010.4 |
| 20260903080012 | 61 | 205 | 6.0 | 10.0 | 0.01 | 0.20 | 0.04 | 91 | 1010.5 |
| 20260903074511 | 61 | 198 | 4.0 | 9.0 | 0.02 | 0.20 | 0.04 | 91 | 1010.6 |
| 20260903073014 | 61 | 202 | 4.0 | 8.0 | 0.02 | 0.20 | 0.04 | 92 | 1010.8 |
| 20260903071507 | 61 | 211 | 4.0 | 8.0 | 0.02 | 0.20 | 0.04 | 92 | 1010.8 |
| 20260903070006 | 61 | 205 | 2.0 | 5.0 | 0.02 | 0.20 | 0.03 | 92 | 1011.0 |
| 20260903063001 | 61 | 213 | 1.0 | 5.0 | 0.01 | 0.18 | 0.02 | 92 | 1011.4 |
| 20260903061600 | 61 | 187 | 3.0 | 6.0 | 0.01 | 0.18 | 0.02 | 92 | 1011.4 |
| 20260903060115 | 61 | 178 | 3.0 | 5.0 | 0.01 | 0.18 | 0.02 | 93 | 1011.6 |
| 20260903054556 | 61 | 213 | 1.0 | 6.0 | 0.00 | 0.17 | 0.01 | 93 | 1011.7 |
| 20260903053052 | 60 | 192 | 2.0 | 5.0 | 0.00 | 0.17 | 0.01 | 93 | 1011.9 |
| 20260903051549 | 60 | 217 | 1.0 | 4.0 | 0.00 | 0.17 | 0.01 | 93 | 1012.1 |
| 20260903050107 | 60 | 216 | 1.0 | 3.0 | 0.00 | 0.17 | 0.01 | 93 | 1012.2 |
| 20260903044543 | 60 | 206 | 2.0 | 5.0 | 0.01 | 0.17 | 0.01 | 93 | 1012.2 |
| 20260903043039 | 59 | 209 | 2.0 | 5.0 | 0.01 | 0.17 | 0.01 | 93 | 1012.4 |
| 20260903041536 | 59 | 218 | 1.0 | 3.0 | 0.01 | 0.17 | 0.01 | 93 | 1012.5 |
| 20260903040035 | 59 | 217 | 1.0 | 4.0 | 0.01 | 0.17 | 0.01 | 93 | 1012.7 |
| 20260903034534 | 59 | 222 | 1.0 | 4.0 | 0.00 | 0.17 | 0.00 | 93 | 1012.7 |
| 20260903033032 | 59 | 219 | 1.0 | 3.0 | 0.00 | 0.17 | 0.00 | 93 | 1012.8 |
| 20260903031530 | 59 | 218 | 1.0 | 4.0 | 0.00 | 0.17 | 0.00 | 93 | 1012.9 |
| 20260903030031 | 59 | 221 | 1.0 | 3.0 | 0.00 | 0.17 | 0.00 | 93 | 1012.9 |
| 20260903024528 | 59 | 213 | 1.0 | 5.0 | 0.00 | 0.17 | 0.00 | 93 | 1013.3 |
| 20260903023027 | 59 | 213 | 0.0 | 0.0 | 0.00 | 0.17 | 0.00 | 93 | 1013.2 |
| 20260903021529 | 59 | 214 | 0.0 | 0.0 | 0.00 | 0.17 | 0.00 | 93 | 1013.4 |
| 20260903020024 | 59 | 215 | 1.0 | 4.0 | 0.00 | 0.17 | 0.00 | 93 | 1013.6 |
| 20260903014523 | 59 | 201 | 0.0 | 3.0 | 0.00 | 0.17 | 0.00 | 93 | 1013.7 |
| 20260903013022 | 59 | 199 | 0.0 | 3.0 | 0.00 | 0.17 | 0.00 | 93 | 1013.8 |
| 20260903011520 | 59 | 198 | 1.0 | 5.0 | 0.00 | 0.17 | 0.00 | 92 | 1013.9 |
| 20260903010026 | 58 | 229 | 0.0 | 3.0 | 0.00 | 0.17 | 0.00 | 92 | 1014.0 |
| 20260903004518 | 58 | 229 | 0.0 | 0.0 | 0.00 | 0.17 | 0.00 | 92 | 1014.0 |
| 20260903003016 | 58 | 232 | 0.0 | 3.0 | 0.00 | 0.17 | 0.00 | 92 | 1014.1 |
| 20260903001515 | 58 | 233 | 2.0 | 4.0 | 0.00 | 0.17 | 0.00 | 92 | 1014.2 |
| 20260903000018 | 58 | 237 | 1.0 | 3.0 | 0.00 | 0.17 | 0.00 | 92 | 1014.2 |